Location: Worth Mountain WMA
(34.9569°N, 81.4819°W)
Time: 15:10:15
(UTC-04:00)

Cosmos 2026 Rocket - Pass Details

Date: 18 August 2017
Orbit: 939 x 1002 km, 82.9° (Epoch: 24 September)

Event Time Altitude Azimuth Distance (km) Brightness Sun altitude
Rises 20:36:11 0° 176° (S) 3,673 6.8 -5.9°
Reaches altitude 10° 20:38:41 10° 174° (S) 2,736 6.1 -6.3°
Maximum altitude 20:44:55 67° 93° (E) 1,073 4.0 -7.5°
Drops below altitude 10° 20:51:14 10° 12° (NNE) 2,777 6.5 -8.7°
Sets 20:53:48 0° 10° (N) 3,732 7.2 -9.2°
